Simultaneous Nadir Overpasses (SNOs) Predictions

Prediction of SNOs between AURA and NPP Satellite Orbit:

Table of predicted SNOs for the next 14.0 days since TLE Epoch: 2/5/2022
Index Date (AURA) Time (AURA) Lat,Lon (AURA) SZA (AURA ) Date (NPP) Time (NPP) Lat,Lon (NPP) SZA (NPP ) Distance(km) Time Diff (sec)
1 02/05/2022 03:41:37 -79.63,-157.50 71.52 02/05/2022 03:41:36 -79.63,-157.58 71.51 1.70 1
2 02/05/2022 04:29:13 81.82, 50.64 102.40 02/05/2022 04:30:26 81.26, 50.54 102.13 61.55 73
3 02/07/2022 19:08:42 79.52, 149.91 107.86 02/07/2022 19:07:49 79.52, 149.96 107.89 1.16 53
4 02/07/2022 19:58:04 -79.71, -41.08 72.44 02/07/2022 19:58:29 -79.70, -41.18 72.44 2.26 25
5 02/10/2022 11:25:08 79.65, -93.29 106.83 02/10/2022 11:24:41 79.65, -93.14 106.82 3.17 27
6 02/10/2022 12:14:31 -79.80, 75.49 73.42 02/10/2022 12:15:22 -79.80, 75.47 73.46 0.24 51
7 02/13/2022 02:54:48 -72.24,-170.91 65.47 02/13/2022 02:53:35 -72.57,-172.98 65.09 78.51 73
8 02/13/2022 03:41:36 79.68, 22.84 105.90 02/13/2022 03:41:36 79.68, 22.90 105.89 1.38 0
9 02/15/2022 19:08:44 -79.48, -30.35 74.70 02/15/2022 19:07:54 -79.48, -30.39 74.65 0.85 50
10 02/15/2022 19:58:02 79.77, 139.38 104.87 02/15/2022 19:58:29 79.77, 139.48 104.83 2.17 27
11 02/18/2022 11:25:06 -79.66, 86.85 75.90 02/18/2022 11:24:43 -79.67, 86.96 75.90 2.37 23



Historial Predications of SNOs between AURA and NPP
